User: anonymous   Login
Location: Mohawk View
(42.7837°N, 73.7885°W)
Time: 17:55:09
(UTC+00:00)
Language:

EO 1 Del DPAF - Orbit

View from above orbital plane
View from above orbital plane
View from above satellite
View from above satellite

Ground track
Ground track

The orbit data is extracted from the following two-line orbital elements,

1 26623U 00075E   21268.34981186  .00009035  00000-0  41825-3 0  9990
2 26623  97.9956 193.7824 0004147  82.6975 277.4729 15.20368920132317
Epoch (UTC): 25 September 2021 08:23:43
Eccentricity: 0.0004147
inclination: 97.9956°
perigee height: 502 km
apogee height: 507 km
right ascension of ascending node: 193.7824°
argument of perigee: 82.6975°
revolutions per day: 15.20368920
mean anomaly at epoch: 277.4729°
orbit number at epoch: 13231

The dashed part of the orbit path shows where the satellite is in the earth's shadow,  

DLR